Location: Grasslands National Park East Block
(49.0708°N, 106.5295°W)
Time: 07:48:45
(UTC-06:00)

Vanguard 1 Rocket - Pass Details

Date: 29 September 2019
Orbit: 650 x 4226 km, 34.3° (Epoch: 13 October)

Event Time Altitude Azimuth Distance (km) Brightness Sun altitude
Rises 19:43:40 0° 263° (W) 8,434 14.1 -9.7°
Reaches altitude 10° 19:50:10 10° 259° (W) 7,224 13.2 -10.8°
Maximum altitude 20:11:04 46° 197° (SSW) 3,610 10.4 -14.1°
Enters shadow 20:22:11 14° 132° (SE) 4,169 10.2 -15.9°
Drops below altitude 10° 20:23:15 10° 129° (SE) 4,371 - -16.1°
Sets 20:26:06 0° 122° (ESE) 4,995 - -16.5°
